Regional Weather Roundup
Issued by NWS

Home | Current Version | Previous Version | Text Only | Print | Product List | Glossary On
Versions: 1 2 3 4 5 6 7 8 9 10 11 12 13 14 15 16 17 18 19 20 21 22 23 24 25 26 27
000
ASUS43 KDMX 181807
RWRIA

WEATHER ROUNDUP FOR IOWA
NATIONAL WEATHER SERVICE DES MOINES IA
100 PM CDT FRI APR 18 2014

NOTE: "FAIR" INDICATES FEW OR NO CLOUDS BELOW 12,000 FEET WITH NO
SIGNIFICANT WEATHER AND/OR OBSTRUCTIONS TO VISIBILITY.

* - THESE STATIONS ARE NOT NWS STATIONS...THUS NOT UNDER NWS
QUALITY CONTROL.  THEY ALSO DO NOT REPORT WEATHER SUCH
AS PRECIPITATION OR FOG.

IAZ001>003-012>014-020>022-031>034-043>046-181900-
   NORTHWEST IOWA

CITY           SKY/WX    TMP DP  RH WIND       PRES   REMARKS
CARROLL *      SUNNY     57  32  38 S12G23    30.25F
CHEROKEE *     SUNNY     59  32  36 S16G22    30.22F
DENISON *      SUNNY     59  32  36 S13G21    30.22F
LE MARS *      SUNNY     61  32  33 S20G28    30.18F
ORANGE CITY *  SUNNY     59  30  33 S17G24    30.18F
SHELDON *      SUNNY     57  32  38 SE22      30.19F
SIOUX CITY     SUNNY     63  33  32 S22G30    30.19F
6HR MIN TEMP:  29; 6HR MAX TEMP:  63;

SPENCER          N/A     56  33  42 SE21G28   30.24F
6HR MIN TEMP:  30; 6HR MAX TEMP:  57;

STORM LAKE *   SUNNY     57  32  38 S17G25    30.23F
$$

IAZ055>058-069>071-079>083-090>094-181900-
   SOUTHWEST IOWA

CITY           SKY/WX    TMP DP  RH WIND       PRES   REMARKS
ATLANTIC *     SUNNY     57  34  41 S13G18    30.25F
AUDUBON *      SUNNY     61  28  29 S13G18    30.26F
CLARINDA *     SUNNY     59  36  41 S13       30.28F
COUNCIL BLFS * SUNNY     61  36  39 S18       30.22F
CRESTON *      SUNNY     57  36  44 SE13G18   30.28F
HARLAN  *      SUNNY     59  34  38 S18       30.27F
LAMONI         SUNNY     58  34  40 SE9       30.29F
6HR MIN TEMP:  35; 6HR MAX TEMP:  58;

RED OAK *      SUNNY     59  36  41 SE15G22   30.26F
SHENANDOAH *   SUNNY     61  36  39 SE13G22   30.26F
$$

IAZ047>049-059>061-072>074-084-181900-
   CENTRAL IOWA

CITY           SKY/WX    TMP DP  RH WIND       PRES   REMARKS
AMES           SUNNY     55  34  45 SE8       30.31F
6HR MIN TEMP:  29; 6HR MAX TEMP:  55;

ANKENY *       SUNNY     57  34  41 SE12G17   30.31F
CHARITON *     SUNNY     57  34  41 SE10      30.30F
DES MOINES     MOSUNNY   58  34  40 VRB6      30.32S
6HR MIN TEMP:  34; 6HR MAX TEMP:  59;

GRINNELL*      SUNNY     54  32  43 S5        30.33S
KNOXVILLE *    SUNNY     55  34  44 VRB5G13   30.31F
MARSHALLTOWN   SUNNY     53  33  46 VRB6      30.32F
6HR MIN TEMP:  28; 6HR MAX TEMP:  53;

NEWTON *       SUNNY     55  32  41 S8        30.33S
PELLA *        SUNNY     57  34  41 SE7       30.33F
PERRY *          N/A     57  30  35 SE14G20   30.28F
$$

IAZ004>006-015-016-023>025-035-036-181900-
   NORTH CENTRAL IOWA

CITY           SKY/WX    TMP DP  RH WIND       PRES   REMARKS
ALGONA *       SUNNY     54  34  47 SE10G20   30.28F
CLARION *      SUNNY     55  34  44 SE10G20   30.29F
ESTHERVILLE    MOSUNNY   55  36  48 SE18      30.25F
6HR MIN TEMP:  28; 6HR MAX TEMP:  55;

FORT DODGE *   SUNNY     55  36  47 S12G18    30.29F
MASON CITY     SUNNY     51  33  50 SE9       30.33F
6HR MIN TEMP:  29; 6HR MAX TEMP:  51;

FOREST CITY *  PTSUNNY   52  32  46 SE9       30.30F
IOWA FALLS *     N/A     54  32  43 SE5       30.33S
$$

IAZ007>011-017>019-026>030-037>042-050>054-066-181900-
   NORTHEAST IOWA

CITY           SKY/WX    TMP DP  RH WIND       PRES   REMARKS
CEDAR RAPIDS   SUNNY     54  29  38 VRB6      30.32F
6HR MIN TEMP:  28; 6HR MAX TEMP:  54;

CHARLES CITY * SUNNY     50  30  46 VRB6      30.34F
CLINTON *      SUNNY     54  32  43 NE6       30.37F
DECORAH *      SUNNY     48  25  40 CALM      30.34S
DUBUQUE        SUNNY     51  30  44 CALM      30.34F
6HR MIN TEMP:  29; 6HR MAX TEMP:  51;

MONTICELLO *   SUNNY     52  28  40 CALM      30.33F
OELWEIN *      SUNNY    N/A N/A N/A CALM      30.33F
WATERLOO       SUNNY     53  31  42 VRB3      30.33F
6HR MIN TEMP:  25; 6HR MAX TEMP:  53;

$$

IAZ064-065-067-068-078-181900-
   EAST CENTRAL IOWA

CITY           SKY/WX    TMP DP  RH WIND       PRES   REMARKS
DAVENPORT      SUNNY     56  33  42 CALM      30.35F
6HR MIN TEMP:  30; 6HR MAX TEMP:  56;

IOWA CITY      SUNNY     54  31  41 CALM      30.35F
6HR MIN TEMP:  32; 6HR MAX TEMP:  54;

MT. PLEASANT * SUNNY     57  25  28 E3        30.33F
MUSCATINE *    SUNNY     55  34  44 SE7       30.33F
QUAD CITIES    SUNNY     55  32  41 E3        30.34F
6HR MIN TEMP:  31; 6HR MAX TEMP:  56;

$$

IAZ062-063-075>077-085>089-095>099-181900-
   SOUTHEAST IOWA

CITY           SKY/WX    TMP DP  RH WIND       PRES   REMARKS
BURLINGTON     SUNNY     56  32  40 E7        30.33F
6HR MIN TEMP:  32; 6HR MAX TEMP:  57;

FAIRFIELD *    SUNNY     57  30  35 VRB5      30.33F
FORT MADISON * SUNNY     57  37  47 E7        30.34F
KEOKUK *       SUNNY     57  32  38 SE7       30.32F
OSKALOOSA *      N/A     56  33  42 NE5       30.32F
CENTERVILLE *  SUNNY     59  32  36 E7        30.32F
OTTUMWA        SUNNY     56  32  40 E6        30.32F
6HR MIN TEMP:  32; 6HR MAX TEMP:  57;

WASHINGTON *   SUNNY     57  28  33 VRB6      30.33F
$$

ABBREVIATIONS USED IN REMARKS
   TC - TEMPERATURES IN CELSIUS
  WCI - WIND CHILL INDEX
   HX - HEAT INDEX
  VSB - VISIBILITY
$$




USA.gov is the U.S. government's official web portal to all federal, state and local government web resources and services.